Showing default

WGS 5 (USA 243), 39168

Orbit data source: Space-Track

WGS 5 (USA 243), 39168 is a payload satellite owned by USAF SMC (US) in GEO that was launched on Sat, 25 May 2013 UTC via a DELTA 4M+(5,4) launch vehicle from the Air Force Eastern Test Range (AFETR). Payload-class satellites include a variety of spacecraft equipped with specific instruments for various scientific and technological missions. These include communications satellites like Starlink; space stations such as the ISS; scientific satellites like the Hubble; Earth observation satellites from companies like Planet Labs, Umbra, and HawkEye 360; GPS; miniature CubeSats for education and research; and military/defense satellites.

Loading next visibility...
Identifier
39168, 2013-024A
Orbit
GEO
Country
Flag of USUS
Related business
Manufacturer
Boeing/ES
Mission
Operational Defense Communications
Bus & Motor
BSS-702HP, R-4D-15-375
Mass
5,768 kg wet, ~2,500 kg dry
Launch date (UTC)
2013-05-25 (13 years ago)
Launch vehicle
DELTA 4M+(5,4)
Launch site
Air Force Eastern Test Range (AFETR)
Object type
Payload
Rocket body
Debris
Shape & HBR
Box + 2 Pan, 20.4 m
Radar Cross Section
52.962 m², Large (>1 m²)

Expand to show TLE details & history
Last TLE update: 2 days ago

TLE from 2 days ago
0 WGS 5 (USA 243)
1 39168U 13024A   26120.76169458 -.00000281  00000-0  00000-0 0  9996
2 39168   0.0151 260.6772 0000226 139.1361  40.6103  1.00271856 46699
Epoch: 2026-04-30T18:16Z
TLE epoch observation values (Epoch: 2026-04-30T18:16:50.411Z)
Latitude
-0.00181°
Longitude
-52.49074°
Altitude
35,785.339 km
Speed
3.075 km/s
True Right ascension
05h 21m 41s
True Declination
0° 00' 07"
Sunlit
Object was in daylight at epoch
Visualization orbit readout
Latitude
Unknown
Longitude
Unknown
Altitude
Unknown
Speed
Unknown
Apparent Right ascension
Unknown
Apparent Declination
Unknown
Sunlit
N/A
Visualization observer readout
Local Sidereal Time
22:26:22
Azimuth
Unknown
Elevation
Unknown
Doppler factor
Unknown
Orbital elements
Apogee altitude
35,788.598 km
Perigee altitude
35,786.692 km
Semi-major axis
42,165.782 km
Eccentricity
0.00002
Inclination
0.0151°
RAAN
260.6772°
Arg. of periapsis
139.1361°
True anomaly
40.61199°
Mean anomaly
40.6103°
Eccentric anomaly
40.61114°
Mean motion
0.25067 °/min
Orbital period
1,436.15 mins
BSTAR
0
Loading maneuver chart data...
Computing Atmospheric mass density...
Loading historical data...
Loading historical data...
Loading historical data...
Loading historical data...
Loading historical data...
Loading historical data...
Loading historical data...
Other satellites on launch #24 in the year 2013 (2013-05-25 UTC)

Documentation

Showing up to 5 results
|